Regional Weather Roundup
Issued by NWS Upton, NY

Current Version | Previous Version | Text Only | Print | Product List | Glossary On
Versions: 1 2 3 4 5 6 7 8 9 10 11 12 13 14 15 16 17 18 19 20 21 22 23 24 25 26 27 28 29 30 31 32 33 34 35 36 37 38 39 40 41 42 43 44 45 46 47 48 49 50
000
ASUS41 KOKX 260408
RWROKX

REGIONAL WEATHER ROUNDUP
NATIONAL WEATHER SERVICE NEW YORK NY
1200 AM EDT TUE MAY 26 2015

NOTE: "FAIR" INDICATES FEW OR NO CLOUDS BELOW 12,000 FEET WITH NO
SIGNIFICANT WEATHER AND/OR OBSTRUCTIONS TO VISIBILITY.

NYZ071-072-176-178-NJZ106-104-260500-
NEW YORK CITY METRO AREA


CITY           SKY/WX    TMP DP  RH WIND       PRES   REMARKS
CENTRAL PARK   CLEAR     72  57  59 MISG      30.23R
LAGUARDIA APRT PTCLDY    72  57  59 SW10      30.20R
KENNEDY INTL   PTCLDY    64  54  69 S15       30.22S
NEWARK/LIBERTY MOCLDY    72  58  61 S13       30.20R
BRNX BOT. GARD   N/A     72  57  60 S6        30.21R
TETERBORO      CLEAR     72  56  57 S10       30.18R
$$

NYZ177-179-078>081-260500-
LONG ISLAND NEW YORK

CITY           SKY/WX    TMP DP  RH WIND       PRES   REMARKS
FARMINGDALE    PTCLDY    63  55  75 SW13      30.22S
ISLIP          MOCLDY    64  54  69 SW17G25   30.22R
SHIRLEY        MOCLDY    65  55  70 SW14G23   30.24R
WESTHAMPTON    MOCLDY    61  55  81 SW13G21   30.24S
MONTAUK POINT    N/A     63  56  78 SW13G23   30.25R
$$

NYZ052-065-067-260500-
HUDSON VALLEY

CITY           SKY/WX    TMP DP  RH WIND       PRES   REMARKS
WHITE PLAINS   PTCLDY    67  57  70 SE3       30.19S
NEWBURGH       NOT AVBL
MONTGOMERY     MOCLDY    71  59  65 SW5       30.16R
POUGHKEEPSIE   MOCLDY    77  56  48 VRB5G17   30.14S
ALBANY         CLOUDY    77  54  44 S10       30.06S
$$

NJZ001-105-106-008-010-013-015-019>022-104-260500-
NEW JERSEY

CITY           SKY/WX    TMP DP  RH WIND       PRES   REMARKS
NEWARK/LIBERTY MOCLDY    72  58  61 S13       30.20R
TETERBORO      CLEAR     72  56  57 S10       30.18R
CALDWELL       CLEAR     73  56  54 SW6       30.19S
MORRISTOWN     CLEAR     72  55  56 S5        30.20R
SOMERVILLE     CLEAR     70  58  65 SE5       30.19R
SUSSEX         PTCLDY    70  57  63 SW5       30.19S
ANDOVER          N/A     71  59  65 VRB7      30.19S
TRENTON        CLEAR     70  57  63 S10       30.22R
MILLVILLE      CLEAR     67  56  67 VRB7      30.25S
ATLANTIC CITY  CLEAR     66  56  70 S10       30.26S
WRIGHTSTOWN    CLEAR     66  53  63 SW10      30.22R
TOMS RIVER     CLEAR    N/A N/A N/A S9        30.25S
BELMAR         CLEAR     68  48  49 SW12G17   30.24S
$$

PAZ047>061-062-071-260500-
EASTERN PENNSYLVANIA

CITY           SKY/WX    TMP DP  RH WIND       PRES   REMARKS
PHILADELPHIA   PTCLDY    71  55  56 S8        30.23S
ALLENTOWN      PTCLDY    72  59  63 SW9       30.20R
SCRANTON       CLEAR     72  58  61 SW8       30.17R
$$

CTZ002-004>006-009-010-012-RIZ004-006-007-MAZ004-011-015-260500-
SOUTHERN NEW ENGLAND
 IN CT

CITY           SKY/WX    TMP DP  RH WIND       PRES   REMARKS
BRADLEY INTL   CLOUDY    70  56  61 S12       30.15S
HARTFORD       MOCLDY    69  56  62 S9        30.16S
DANBURY        PTCLDY    68  55  63 S10       30.20R
WTRBRY/OXFORD  PTCLDY    66  55  68 SW8       30.20F
BRIDGEPORT     MOCLDY    63  56  78 SW13      30.20R
MERIDEN        MOCLDY    67  55  65 S9        30.19R
NEW HAVEN      MOCLDY    63  55  75 SW7       30.21R
CHESTER        FAIR      64  55  72 SW13G21   30.22R
GROTON         MOCLDY    62  53  72 SW12      30.21R
WILLIMANTIC    CLOUDY    68  55  63 S7        30.19S

 IN RI

CITY           SKY/WX    TMP DP  RH WIND       PRES   REMARKS
PROVIDENCE     CLOUDY    65  54  67 SW14G21   30.21R
BLOCK ISLAND   MOCLDY    57  52  82 SW20      30.23S
WESTERLY       MOCLDY    64  52  64 SW9G25    30.23R

 IN MA

CITY           SKY/WX    TMP DP  RH WIND       PRES   REMARKS
BOSTON         LGT RAIN  66  57  72 SW15G21   30.16S
WORCESTER      LGT RAIN  66  57  72 SW14      30.17S
WESTFIELD      CLOUDY    69  57  65 S8        30.14S
PROVINCETOWN   MOCLDY    59  54  82 SW16G22   30.20F
NANTUCKET      PTCLDY    58  55  90 S14       30.26S
$$

ANZ330-335-338-340-345-350-353-355-260500-
COASTAL MARINE OBSERVATIONS


STATION/POSITION TIME  SKY/WX   TEMP    WIND        PRES    VSBY  WAVE
                                AIR SEA DIR/SP/G                  HT/PER
                 (UTC)          (F)     (DEG/KT/KT) (MB)    (MI)  (FT/S)
NY HARB ENTRANCE 0350            61 56  200/ 19/ 21 1023.0          4/ 5
4S FIRE IS       0303               54                N/A           5/ 6
20S FIRE ISLAND  0350            59 55  210/ 16/ 17 1023.8          4/ 5
GREAT SOUTH BAY  0330            61 64  260/ 14/ 23   N/A
23SW MTP         0350            58 53  220/ 17/ 21 1023.7          5/ 6
HUDSON CANYON    NOT AVBL
KINGS POINT      0300            68 60  200/ 12/ 14 1021.8
CENTRAL LI SOUND 0330            62 54  210/ 16/ 17   N/A
EASTERN LI SOUND 0300            59     210/ 16/ 19   N/A
ROBBINS REEF     0300            72     200/ 15/ 17 1021.4
$$


>>>>>>>>>>>>>>>>>>>>>>>>>>>> KEY <<<<<<<<<<<<<<<<<<<<<<<<<<<
>                                                          <
>     SKY/WX - SKY CONDITION/PRESENT WEATHER               <
>     TMP    - TEMPERATURE IN FAHRENHEIT                   <
>     DP     - DEWPOINT IN FAHRENHEIT                      <
>     RH     - RELATIVE HUMIDITY IN PERCENT                <
>     WIND   - DIRECTION AND SPEED IN MPH                  <
>     PRES   - MEAN SEA LEVEL PRESSURE IN INCHES OF HG     <
>     WCI    - WIND CHILL INDEX                            <
>     VSB    - VISIBILITY IN MILES                         <
>     HX     - HEAT INDEX                                  <
>     TC     - TEMPERATURE IN CELSIUS                      <
>     VRB    - VARIABLE WIND DIRECTION                     <
>                                                          <
>>>>>>>>>>>>>>>>>>>>>>>>>>>> KEY <<<<<<<<<<<<<<<<<<<<<<<<<<<




USA.gov is the U.S. government's official web portal to all federal, state and local government web resources and services.